Location: Dittelspoint
(48.7198°N, 10.7214°E)
Time: 12:49:14
(UTC+00:00)

Cosmos 489 Rocket - Pass Details

Date: 09 April 2020
Orbit: 952 x 983 km, 74.0° (Epoch: 02 June)

Event Time Altitude Azimuth Distance (km) Brightness Sun altitude
Rises 20:05:18 0° 338° (NNW) 3,640 8.5 -19.3°
Reaches altitude 10° 20:07:52 10° 341° (NNW) 2,691 7.6 -19.6°
Maximum altitude 20:14:03 66° 63° (ENE) 1,042 4.5 -20.4°
Enters shadow 20:16:26 38° 132° (SE) 1,417 4.8 -20.7°
